EHI
0 0 0 0 0 0 0 0 0 0 0 0 0 0 0 0 0 0 0 0 0 0 0 0 0 0 1 2 3 3 3 3 5 6 5 3 2 1 0 0 0 0 0 0
0 0 0 0 0 0 0 0 0 0 0 0 0 0 0 0 0 0 0 0 0 0 0 0 0 0 0 1 2 2 2 2 4 5 4 2 1 0 0 0 0 0 0 0
0 0 0 0 0 0 0 0 0 0 0 0 0 0 0 0 0 0 0 0 0 0 0 0 0 0 0 0 1 1 0 1 3 4 3 1 0 0 0 0 0 0 0 0
0 0 0 0 0 0 0 0 0 0 0 0 0 0 0 0 0 0 0 0 0 0 0 0 0 0 0 0 0 0 0 1 2 3 1 0 0 0 0 0 0 0 0 0
0 0 0 0 0 0 0 0 0 0 0 0 0 0 0 0 0 0 0 0 0 0 0 0 0 0 0 0 0 0 0 1 2 2 1 0 0 0 0 0 0 0 0 0
0 0 0 0 0 0 0 0 0 0 0 0 0 0 0 0 0 0 0 0 0 0 0 0 0 0 0 0 0 0 0 0 1 1 0 0 0 0 0 0 0 0 0 0
0 0 0 0 0 0 0 0 0 0 0 0 0 0 0 0 0 0 0 0 0 0 0 0 0 0 0 0 0 0 0 0 0 0 0 0 0 0 0 0 0 0 0 0
0 0 0 0 0 0 0 0 0 0 0 0 0 0 0 0 0 0 0 0 0 0 0 0 0 0 0 0 0 0 0 0 0 0 0 0 0 0 0 0 0 0 0 0
0 0 0 0 0 0 0 0 0 0 0 0 0 0 0 0 0 0 0 0 0 0 0 0 0 0 0 0 0 0 0 0 0 0 0 0 0 0 0 0 0 0 0 0
0 0 0 0 0 0 0 0 0 0 0 0 0 0 0 0 0 0 0 0 0 0 0 0 0 0 0 0 0 0 0 0 0 0 0 0 0 0 0 0 0 0 0 0
0 0 0 0 0 0 0 0 0 0 0 0 0 0 0 0 0 0 0 0 0 0 0 0 0 0 0 0 0 0 0 0 0 0 0 0 0 0 0 0 0 0 0 0
0 0 0 0 0 0 0 0 0 0 0 0 0 0 0 0 0 0 0 0 0 0 0 0 0 0 0 0 0 0 0 0 0 0 0 0 0 0 0 0 0 0 0 0
0 0 0 0 0 0 0 0 0 0 0 0 0 0 0 0 0 0 0 0 0 0 0 0 0 0 0 0 0 0 0 0 0 0 0 0 0 0 0 0 0 0 0 0
0 0 0 0 0 0 0 0 0 0 0 0 0 0 0 0 0 0 0 0 0 0 0 0 0 0 0 0 0 0 0 0 0 0 0 0 0 0 0 0 0 0 0 0
0 0 0 0 0 0 0 0 0 0 0 0 0 0 0 0 0 0 0 0 0 0 0 0 0 0 0 0 0 0 0 0 0 0 0 0 0 0 0 0 0 0 0 0
0 0 0 0 0 0 0 0 0 0 0 0 0 0 0 0 0 0 0 0 0 0 0 0 0 0 0 0 0 0 0 0 0 0 0 0 0 0 0 0 0 0 0 0
0 0 0 0 0 0 0 0 0 0 0 0 0 0 0 0 0 0 0 0 0 0 0 0 0 0 0 0 0 0 0 0 0 0 0 0 0 0 0 0 0 0 0 0
0 0 0 0 0 0 0 0 0 0 0 0 0 0 0 0 0 0 0 0 0 0 0 0 0 0 0 0 0 0 0 0 0 0 0 0 0 0 0 0 0 0 0 0
0 0 0 0 0 0 0 0 0 0 0 0 0 0 0 0 0 0 0 0 0 0 0 0 0 0 0 0 0 0 0 0 0 0 0 0 0 0 0 0 0 0 0 0
0 0 0 0 0 0 0 0 0 0 0 0 0 0 0 0 0 0 0 0 0 0 0 0 0 0 0 0 0 0 0 0 0 0 0 0 0 0 0 0 0 0 0 0
0 0 0 0 0 0 0 0 0 0 0 0 0 0 0 0 0 0 0 0 0 0 0 0 0 0 0 0 0 0 0 0 0 0 0 0 0 0 0 0 0 0 0 0
0 0 0 0 0 0 0 0 0 0 0 0 0 0 0 0 0 0 0 0 0 0 0 0 0 0 0 0 0 0 0 0 0 0 0 0 0 0 0 0 0 0 0 0
0 0 0 0 0 0 0 0 0 0 0 0 0 0 0 0 0 0 0 0 0 0 0 0 0 0 0 0 0 0 0 0 0 0 0 0 0 0 0 0 0 0 0 0
0 0 0 0 0 0 0 0 0 0 0 0 0 0 0 0 0 0 0 0 0 0 0 0 0 0 0 0 0 0 0 0 0 0 0 0 0 0 0 0 0 0 0 0
0 0 0 0 0 0 0 0 0 0 0 0 0 0 0 0 0 0 0 0 0 0 0 0 0 0 0 0 0 0 0 0 0 0 0 0 0 0 0 0 0 0 0 0
0 0 0 0 0 0 0 0 0 0 0 0 0 0 0 0 0 0 0 0 0 0 0 0 0 0 0 0 0 0 0 0 0 0 0 0 0 0 0 0 0 0 0 0
Wind_Speed
1 2 2 3 2 4 5 5 7 6 3 3 6 7 4 2 1 2 1 0 1 1 1 2 1 2 2 3 3 2 2 2 1 0 1 0 1 1 1 2 2 2 2 2
0 1 3 3 3 5 5 6 6 5 3 4 6 8 4 2 3 2 0 1 1 2 2 3 3 2 2 2 2 2 2 2 1 0 1 1 1 1 1 1 2 2 2 1
1 2 4 3 4 6 5 4 5 6 6 5 5 6 3 1 1 1 1 1 1 1 2 2 3 3 2 1 1 2 2 2 2 1 1 1 1 1 1 1 1 1 2 1
1 2 4 3 3 4 5 3 6 6 4 4 2 5 4 1 0 1 1 1 2 2 2 3 3 3 3 3 2 2 2 2 2 1 1 2 2 1 0 1 1 1 1 1
1 3 3 4 4 4 5 7 7 7 5 5 4 4 5 1 2 2 1 1 2 2 3 3 3 3 3 3 3 3 3 2 1 1 1 2 2 1 0 0 1 1 1 1
1 1 2 3 5 3 6 6 6 4 2 4 4 4 4 1 2 1 1 1 1 2 3 3 4 4 4 4 3 4 3 2 2 1 0 2 2 1 1 0 1 1 0 1
2 1 2 2 4 3 4 3 3 2 2 4 2 2 3 1 3 2 1 1 2 2 2 3 3 4 4 4 3 3 4 3 3 1 1 1 2 2 2 1 1 1 0 0
4 3 2 2 2 3 3 2 0 3 4 4 2 3 2 2 4 4 3 2 3 3 3 3 3 3 3 3 3 3 3 3 3 2 2 1 0 1 1 1 1 1 1 1
4 4 2 2 3 2 3 1 1 2 4 4 4 3 1 4 5 5 4 3 3 3 3 3 3 3 3 3 3 3 3 3 3 3 2 1 1 0 0 0 0 1 1 1
3 5 3 1 2 2 2 3 1 1 3 4 5 3 2 3 4 4 3 2 3 3 3 3 3 3 3 2 2 2 2 2 2 2 2 2 1 1 1 0 1 1 1 1
2 3 4 1 1 2 1 1 2 3 3 3 5 3 2 2 2 3 3 3 3 3 3 3 3 3 2 2 2 2 2 2 2 2 2 2 1 1 1 0 1 1 1 1
2 2 4 3 1 0 0 1 1 2 4 3 4 6 1 3 2 2 3 3 4 4 3 3 3 3 3 2 3 3 2 2 1 1 1 1 1 1 1 1 1 1 1 1
2 1 4 3 1 1 1 1 1 2 3 4 4 7 1 4 4 3 3 4 4 4 4 3 3 3 3 2 2 2 2 2 1 1 1 1 1 1 1 1 1 1 1 1
0 2 4 6 5 3 5 5 3 2 3 5 7 9 7 6 6 5 4 4 3 4 4 4 4 3 3 3 2 2 2 2 2 1 1 1 2 1 1 1 1 1 1 1
1 4 5 9 8 7 7 8 6 6 7 8 10 9 9 7 5 5 4 4 4 5 5 4 4 4 4 4 3 2 2 2 2 1 1 2 2 1 1 1 1 1 1 1
2 4 4 8 8 7 9 9 8 8 8 9 10 11 7 6 4 4 4 4 5 6 5 5 5 5 5 4 4 3 3 2 2 2 2 2 2 1 1 0 1 0 1 1
2 2 4 6 4 5 8 7 6 5 5 5 7 7 5 5 5 5 5 5 5 5 5 5 5 5 5 5 4 4 3 2 2 2 2 2 2 2 1 1 1 0 1 1
3 3 3 5 4 7 6 1 3 4 5 4 5 5 4 4 5 4 4 4 5 5 4 5 5 5 5 5 4 4 3 2 2 2 2 2 2 2 2 1 1 1 1 1
2 3 3 3 5 8 3 1 1 2 6 3 4 5 4 4 4 3 3 4 4 4 4 4 4 4 5 5 4 3 3 3 3 2 2 2 2 2 2 1 2 2 1 1
1 2 3 3 4 7 3 1 0 1 5 1 1 3 3 3 3 3 4 4 4 4 4 4 4 4 5 5 4 3 3 3 3 3 3 2 2 2 2 2 2 2 2 2
2 3 5 5 6 7 1 1 1 1 5 3 1 2 2 2 3 3 4 4 3 4 4 4 4 4 4 4 3 3 3 3 3 3 3 3 2 2 2 2 2 2 2 2
5 4 5 4 5 7 2 2 3 4 2 2 2 2 2 3 3 4 4 4 4 4 4 4 4 4 4 3 3 3 4 4 3 3 3 3 2 3 2 1 2 2 1 1
5 5 4 6 6 1 4 3 2 1 2 2 2 3 2 3 4 4 4 4 4 4 4 4 4 5 4 4 2 3 4 3 3 3 3 3 3 2 2 2 2 2 1 1
3 1 2 5 5 2 3 2 1 1 3 3 2 2 2 3 4 4 5 4 4 4 4 4 4 4 5 4 4 3 4 3 2 3 3 3 2 2 2 2 2 1 1 1
2 3 3 6 4 3 2 2 2 3 3 3 3 3 3 3 4 4 4 4 4 4 4 4 4 4 5 4 4 4 3 2 2 3 3 3 3 2 2 2 2 2 2 2
3 4 4 5 2 2 4 3 2 3 3 3 3 3 3 2 4 4 4 4 3 4 4 4 4 4 4 4 4 4 3 2 2 3 3 2 2 2 2 2 2 3 3 4
Wind_Direction
76 28 355 333 322 291 291 287 286 292 298 290 265 270 272 276 257 241 250 269 20 8 18 42 47 32 24 18 13 5 10 355 29 74 84 101 120 106 92 98 102 93 89 104
5 358 328 331 322 302 286 284 290 298 311 295 275 278 273 249 226 226 243 359 355 6 30 28 26 45 54 27 3 3 10 353 312 199 147 157 130 143 131 109 96 98 86 106
2 327 334 328 329 321 291 276 292 297 302 266 270 275 227 188 126 42 38 36 33 48 31 23 25 22 25 20 1 1 1 2 344 345 76 97 96 95 82 92 103 110 102 98
326 338 342 329 323 315 292 310 299 293 296 276 262 281 264 213 297 2 340 3 34 55 43 33 27 19 15 7 8 7 3 4 353 28 118 146 133 136 187 186 133 111 109 98
324 346 340 328 319 311 289 307 286 274 267 281 254 254 277 171 264 274 305 1 30 51 53 38 30 26 21 20 14 2 358 352 353 357 174 145 122 124 95 124 116 111 115 91
237 342 2 328 315 303 304 298 276 253 247 263 239 228 281 290 291 304 334 18 28 46 46 37 29 25 23 27 16 5 360 346 357 359 106 131 134 128 117 90 122 111 119 100
321 99 57 356 322 328 336 343 341 323 248 252 216 231 263 13 16 44 66 28 32 37 36 25 16 18 19 21 14 6 357 0 359 6 32 106 140 149 157 169 155 142 158 136
329 320 47 20 355 319 314 342 345 283 284 303 297 252 257 47 38 33 41 55 43 24 13 9 3 14 11 9 7 9 354 354 358 2 6 2 358 156 159 165 168 178 199 196
335 305 3 4 342 342 326 307 289 278 278 275 263 246 249 22 22 13 14 27 10 353 356 355 356 2 2 2 360 1 353 355 1 4 5 348 339 42 156 139 138 187 199 203
320 296 295 349 355 349 314 318 327 284 299 287 281 272 309 337 342 347 356 346 330 335 346 344 349 349 350 352 348 356 2 352 351 358 355 358 349 360 315 180 193 215 209 185
307 280 289 303 251 282 334 334 304 269 259 280 294 286 17 12 358 343 336 332 326 329 335 337 332 327 332 341 345 358 0 358 356 1 352 357 347 329 313 266 243 241 214 172
338 292 275 260 230 351 55 295 263 249 275 261 273 275 357 39 36 4 342 337 337 332 331 324 321 324 331 344 351 356 353 347 336 338 334 320 317 320 304 311 294 270 239 197
334 294 299 302 299 4 336 293 290 267 276 267 265 272 342 12 5 357 340 335 334 331 330 331 332 339 334 340 344 338 335 332 329 336 326 319 317 298 289 296 290 274 247 216
339 245 231 254 274 290 284 277 261 239 248 267 254 273 296 315 322 326 326 325 321 325 330 335 336 336 335 330 330 327 325 328 332 332 318 305 295 289 263 258 274 268 244 213
232 256 253 265 272 268 264 269 256 236 243 254 272 280 287 301 302 305 313 326 334 332 333 335 335 334 336 333 330 330 323 323 325 322 319 305 303 303 294 281 270 275 284 256
237 266 281 274 261 260 268 266 252 248 251 257 274 280 290 310 321 318 323 330 331 326 326 334 335 336 334 332 329 327 325 325 329 316 310 314 315 309 295 267 259 268 270 236
239 256 280 278 275 290 271 246 223 231 236 230 250 267 318 328 322 316 318 323 324 325 334 336 335 330 328 329 329 325 318 326 328 325 330 329 323 318 315 322 333 306 290 262
232 254 262 283 310 257 246 187 192 229 246 233 263 291 306 305 310 312 320 320 321 325 331 333 337 337 336 333 332 331 334 334 321 321 324 323 328 329 332 339 324 315 310 277
202 216 258 272 276 273 259 160 156 233 278 243 253 286 313 336 326 308 338 349 331 326 329 328 328 325 329 332 330 334 333 335 326 318 312 318 326 318 324 324 316 322 326 309
201 206 239 251 263 265 263 122 355 69 279 276 271 288 309 348 327 299 348 348 334 336 337 334 334 337 337 332 335 336 327 331 323 319 319 324 321 309 308 308 315 318 310 296
196 219 227 243 255 265 255 212 96 173 271 334 326 292 298 280 260 287 329 336 333 337 337 336 335 330 320 322 332 329 322 310 304 314 323 325 320 306 298 307 313 313 311 311
189 198 210 211 233 256 128 132 189 239 307 330 330 318 303 290 303 315 323 325 333 336 335 334 332 324 319 324 329 320 309 305 313 321 321 318 319 307 312 319 313 310 301 294
202 199 202 209 224 228 165 195 232 291 304 300 306 308 296 294 297 308 312 317 324 326 325 329 325 321 322 323 316 304 303 314 321 320 313 312 314 311 309 305 302 302 293 278
214 164 244 267 267 263 218 242 289 301 282 287 283 285 290 291 296 306 310 313 320 322 322 325 323 320 319 321 318 300 305 316 318 309 307 307 306 310 315 307 298 288 273 269
228 175 238 259 277 307 259 245 269 295 297 298 299 283 275 278 290 296 303 312 319 321 324 324 318 312 310 315 319 316 315 313 309 304 302 306 307 305 308 301 291 286 279 269
186 187 205 241 248 251 274 281 284 278 280 288 303 305 301 279 287 299 303 308 312 315 319 320 320 320 320 322 319 320 321 316 304 304 307 304 303 301 301 299 314 313 296 310